GW2282 Weather Reports


Display with metric or nautical units.
time (UTC)temp
F
wind
direction
speed
MPH
gust
MPH
rain 1hr
in
rain 24hr
in
rain mn
in
humidity
%
barometer
mb
20260507133030 49 265 5.0 11.0 0.00 0.00 0.00 83 1015.8
20260507131535 49 263 5.0 13.0 0.00 0.00 0.00 83 1015.7
20260507130036 49 260 7.0 16.0 0.00 0.00 0.00 83 1015.6
20260507124531 49 261 7.0 15.0 0.00 0.00 0.00 84 1015.6
20260507123034 49 258 8.0 18.0 0.00 0.00 0.00 84 1015.8
20260507121641 49 265 7.0 14.0 0.00 0.00 0.00 85 1016.0
20260507120041 48 268 6.0 14.0 0.00 0.00 0.00 85 1016.2
20260507114540 47 251 3.0 9.0 0.00 0.00 0.00 85 1016.2
20260507113033 48 219 3.0 7.0 0.00 0.00 0.00 84 1016.2
20260507110036 49 204 2.0 5.0 0.00 0.00 0.00 83 1016.0
20260507104534 50 239 4.0 11.0 0.00 0.00 0.00 82 1015.8
20260507101606 51 258 5.0 12.0 0.00 0.00 0.00 82 1015.4
20260507100043 51 242 6.0 14.0 0.00 0.00 0.00 82 1015.2
20260507094535 52 231 5.0 12.0 0.00 0.00 0.00 81 1015.5
20260507093037 52 229 4.0 11.0 0.00 0.00 0.00 81 1015.6
20260507091609 53 222 5.0 11.0 0.00 0.00 0.00 80 1015.5
20260507084534 54 245 7.0 14.0 0.00 0.00 0.00 79 1015.3
20260507081536 55 262 9.0 17.0 0.00 0.00 0.00 79 1015.2
20260507073032 55 261 8.0 17.0 0.00 0.00 0.00 77 1015.5
20260507070029 56 265 10.0 19.0 0.00 0.00 0.00 77 1015.0
20260507064531 56 262 9.0 20.0 0.00 0.00 0.00 76 1015.2
20260507063033 56 263 9.0 16.0 0.00 0.00 0.00 75 1015.4
20260507061530 57 264 9.0 16.0 0.00 0.00 0.00 75 1015.4
20260507060106 57 261 8.0 19.0 0.00 0.00 0.00 74 1015.5
20260507053031 57 264 9.0 18.0 0.00 0.00 0.00 71 1015.7
20260507050031 58 268 9.0 18.0 0.00 0.00 0.00 67 1015.5
20260507044607 59 268 9.0 19.0 0.00 0.00 0.00 65 1015.5
20260507043110 59 275 6.0 12.0 0.00 0.00 0.00 64 1015.6
20260507040046 60 268 4.0 10.0 0.00 0.00 0.00 62 1015.5
20260507034531 60 256 5.0 9.0 0.00 0.00 0.00 61 1015.3
20260507031532 62 259 6.0 12.0 0.00 0.00 0.00 59 1015.1
20260507030029 62 266 8.0 16.0 0.00 0.00 0.00 59 1015.0
20260507023035 63 266 7.0 15.0 0.00 0.00 0.00 58 1014.7
20260507021534 63 265 8.0 17.0 0.00 0.00 0.00 57 1014.5
20260507020110 64 263 10.0 20.0 0.00 0.00 0.00 56 1014.4
20260507011536 67 263 12.0 21.0 0.00 0.00 0.00 51 1014.2
20260507010030 69 262 10.0 23.0 0.00 0.00 0.00 50 1014.2
20260507004531 69 265 11.0 23.0 0.00 0.00 0.00 50 1014.2
20260507003107 69 262 11.0 21.0 0.00 0.00 0.00 49 1014.1
20260507001642 69 262 11.0 23.0 0.00 0.00 0.00 46 1014.0
20260507000037 70 264 13.0 28.0 0.00 0.00 0.00 44 1013.6
20260506234534 72 265 12.0 25.0 0.00 0.00 0.00 43 1013.6
20260506233034 73 264 12.0 26.0 0.00 0.00 0.00 43 1013.8
20260506231530 73 258 11.0 21.0 0.00 0.00 0.00 44 1014.1
20260506230034 73 256 11.0 24.0 0.00 0.00 0.00 44 1013.9
20260506223032 74 261 11.0 21.0 0.00 0.00 0.00 44 1014.3
20260506220107 75 259 11.0 24.0 0.00 0.00 0.00 44 1014.3
20260506214543 74 256 10.0 21.0 0.00 0.00 0.00 46 1014.3
20260506213111 73 259 11.0 26.0 0.00 0.00 0.00 48 1014.3
20260506211535 72 265 11.0 24.0 0.00 0.00 0.00 49 1014.4
20260506210034 71 264 11.0 21.0 0.00 0.00 0.00 50 1014.4
20260506203036 71 268 11.0 22.0 0.00 0.00 0.00 51 1014.8
20260506201606 71 274 11.0 22.0 0.00 0.00 0.00 53 1014.7
20260506194531 71 270 12.0 24.0 0.00 0.00 0.00 53 1014.4
20260506193107 71 273 12.0 24.0 0.00 0.00 0.00 54 1014.5
20260506191536 70 275 11.0 24.0 0.00 0.00 0.00 55 1014.6
20260506190032 70 264 9.0 18.0 0.00 0.00 0.00 56 1015.0
20260506184536 69 260 9.0 19.0 0.00 0.00 0.00 58 1015.1
20260506183042 68 258 9.0 17.0 0.00 0.00 0.00 59 1015.2
20260506181609 68 266 10.0 19.0 0.00 0.00 0.00 60 1015.1
20260506180035 68 265 9.0 17.0 0.00 0.00 0.00 60 1015.0
20260506173028 66 266 8.0 19.0 0.00 0.00 0.00 62 1014.8
20260506171648 65 267 10.0 20.0 0.00 0.00 0.00 63 1015.1
20260506164531 64 267 11.0 22.0 0.00 0.00 0.00 64 1015.3
20260506163034 63 271 10.0 22.0 0.00 0.00 0.00 65 1015.4
20260506160030 62 272 9.0 18.0 0.00 0.00 0.00 68 1015.3
20260506154530 61 272 10.0 22.0 0.00 0.00 0.00 69 1015.2
20260506153029 60 267 8.0 18.0 0.00 0.00 0.00 71 1015.3
20260506151610 60 264 8.0 16.0 0.00 0.00 0.00 73 1015.5
20260506150028 59 261 7.0 18.0 0.00 0.00 0.00 75 1015.5
20260506144530 58 267 6.0 13.0 0.00 0.00 0.00 78 1015.5
20260506143029 57 263 6.0 16.0 0.00 0.00 0.00 80 1015.4